Location: Crescent
(42.8242°N, 73.7329°W)
Time: 21:20:31
(UTC+00:00)

Vanguard 2 Rocket - Pass Details

Date: 19 February 2026
Orbit: 553 x 3287 km, 32.9° (Epoch: 7 March)

Event Time Altitude Azimuth Distance (km) Brightness Sun altitude
Rises 14:17:42 0° 201° (SSW) 6,965 11.7 23.4°
Reaches altitude 10° 14:23:35 10° 189° (S) 6,139 11.7 24.2°
Maximum altitude 14:37:58 26° 143° (SE) 4,914 14.0 26.0°
Drops below altitude 10° 14:50:55 10° 96° (E) 5,563 11.7 27.5°
Sets 14:55:45 0° 85° (E) 6,226 11.6 28.1°
